www.pogodaiklimat.ru

Погода и климат >> Архив погоды >> Казахстан >> Анкаты


ПОГОДА в Анкаты

  • Прогноз погоды в Анкаты
  • Монитор погоды в Анкаты
  • Климат города

АРХИВ ПОГОДЫ в Анкаты

Время (UTC), дата Ветер
(напр.,м/с)
 
Видим.   Явления Облачность Т
(С)
Тd
(С)
f
(%)
Тe
(С)
Тes
(С)
Комфортность P
(гПа)
Po
(гПа)
Тmin
(С)
Tmax
(С)
R
(мм)
R24
(мм)
S
(см)
18 9.08 С 5 20 км ясно +20.7 -26.1 3 +19 +19 1016.4 1013.2 +28.1
21 9.08 С 4 20 км ясно +16.1 -29.2 3 +16 +16 1017.2 1014.0
00 10.08 С 4 20 км ясно +14.5 -30.3 3 +14 +14 1017.8 1014.6
03 10.08 С 6 20 км ясно +16.8 -28.7 3 +16 +17 1018.8 1015.6 <0.5
06 10.08 С 6 20 км ясно +22.7 -21.5 4 +20 +24 1019.4 1016.2
09 10.08 С 7 20 км ясно +25.4 -19.6 4 +22 +26 комфорт 1019.0 1015.9
12 10.08 С 7 20 км ясно +26.8 -18.6 4 +23 +25 комфорт 1018.6 1015.5
15 10.08 С 7 20 км ясно +24.3 -20.4 4 +21 +21 комфорт 1019.1 1016.0 +26.8
18 10.08 С 3 20 км ясно +16.4 -29.0 3 +16 +16 1020.3 1017.1 +26.8
21 10.08 С 3 20 км ясно +13.4 -31.1 3 +13 +13 1020.6 1017.3
00 11.08 СЗ 2 20 км ясно +10.1 -33.3 3 +10 +10 1021.1 1017.8
03 11.08 С 2 19 км ясно +15.0 -30.0 3 +15 +17 1022.0 1018.7 <0.5
06 11.08 СЗ 5 20 км ясно +23.3 -21.1 4 +20 +25 1021.7 1018.5
09 11.08 СЗ 5 20 км н/о +25.9 -19.3 4 +22 +22 комфорт 1020.3 1017.2
12 11.08 СЗ 3 20 км н/о +27.6 -18.1 4 +23 +23 комфорт 1018.9 1015.8
15 11.08 З 1 20 км н/о +27.2 -18.4 4 +23 +23 комфорт 1017.7 1014.6 +27.7
18 11.08 Ю 2 20 км ясно +20.2 -26.4 3 +20 +20 1017.6 1014.4 +27.7
21 11.08 ЮЗ 3 20 км н/о +18.2 -27.8 3 +18 +18 1017.1 1013.9
00 12.08 Ю 2 20 км н/о +18.1 -27.8 3 +19 +19 1015.9 1012.7
03 12.08 Ю 2 20 км н/о +20.1 -26.5 3 +20 +20 1015.2 1012.0 <0.5
06 12.08 ЮЗ 7 19 км н/о +26.6 -18.8 4 +23 +23 комфорт 1014.5 1011.4
09 12.08 З 9 18 км н/о +28.1 -21.1 3 +24 +24 комфорт 1013.5 1010.4
12 12.08 З 8 20 км н/о +31.4 -15.5 4 +27 +27 жарко 1011.3 1008.3
15 12.08 С 2
{17}
20 км н/о +24.6 -23.5 3 +21 +21 комфорт 1010.8 1007.7 +31.8
18 12.08 СЗ 2 20 км ясно +20.6 -26.2 3 +20 +20 1011.1 1007.9 +31.8
21 12.08 С 2 20 км ясно +18.8 -27.4 3 +19 +19 1011.6 1008.4
00 13.08 С 2 20 км ясно +15.2 -29.8 3 +15 +15 1011.7 1008.5
03 13.08 С 4 20 км ясно +17.4 -28.3 3 +17 +18 1012.3 1009.1 <0.5
06 13.08 С 5 20 км ясно +23.9 -20.7 4 +21 +26 комфорт 1013.1 1010.0
09 13.08 С 6 20 км н/о +26.4 -18.9 4 +22 +22 комфорт 1012.8 1009.7
12 13.08 С 6 20 км ясно +27.1 -18.4 4 +23 +26 комфорт 1013.0 1009.9
15 13.08 С 5 20 км ясно +25.4 -19.6 4 +22 +22 комфорт 1012.9 1009.8 +27.4
18 13.08 С 4 20 км н/о +18.6 -27.5 3 +18 +18 1014.5 1011.3 +27.4
21 13.08 СВ 3 20 км ясно +17.4 -28.3 3 +17 +17 1014.8 1011.6
00 14.08 С 3 20 км ясно +12.9 -31.4 3 +12 +12 1015.4 1012.1
03 14.08 С 3 20 км ясно +14.4 -30.4 3 +14 +15 1016.1 1012.9 <0.5
06 14.08 С 5 20 км ясно +21.8 -22.1 4 +19 +25 1016.0 1012.8
09 14.08 С 5 20 км ясно +23.7 -20.8 4 +21 +28 комфорт 1015.7 1012.6
12 14.08 СВ 4 20 км ясно +27.2 -18.4 4 +23 +28 комфорт 1015.0 1011.9
15 14.08 СВ 3 20 км ясно +26.2 -19.1 4 +22 +23 комфорт 1015.1 1012.0 +27.4
18 14.08 СВ 3 20 км ясно +19.1 -27.2 3 +19 +19 1016.5 1013.3 +27.4
21 14.08 СВ 2 20 км ясно +15.1 -29.9 3 +15 +15 1017.1 1013.9
00 15.08 СВ 2 20 км ясно +13.6 -30.9 3 +14 +14 1018.1 1014.8
03 15.08 В 3 20 км ясно +16.3 -29.1 3 +16 +17 1018.9 1015.7 <0.5
06 15.08 В 3 20 км ясно +23.4 -21.0 4 +20 +28 1019.4 1016.3
09 15.08 СВ 4 20 км н/о +26.0 -19.2 4 +22 +22 комфорт 1019.0 1015.9
12 15.08 В 3 20 км ясно +29.2 -17.0 4 +25 +30 комфорт 1018.3 1015.2
15 15.08 В 2 18 км ясно +27.7 -18.0 4 +24 +24 комфорт 1018.5 1015.4 +29.2
18 15.08 СВ 2 20 км ясно +21.3 -25.7 3 +19 +19 1019.5 1016.3 +29.2
21 15.08 СВ 3 20 км ясно +17.7 -28.1 3 +18 +18 1019.6 1016.4
00 16.08 СВ 2 20 км ясно +15.5 -29.6 3 +16 +16 1019.7 1016.5
03 16.08 С 3 20 км ясно +17.3 -28.4 3 +17 +18 1020.7 1017.5 <0.5
06 16.08 СВ 2 20 км ясно +28.0 -17.8 4 +24 +33 комфорт 1021.0 1017.9
09 16.08 З 1 20 км н/о +32.1 -15.0 4 +27 +27 жарко 1020.4 1017.3
12 16.08 СВ 2 20 км ясно +32.1 -15.0 4 +27 +34 жарко 1020.1 1017.0
15 16.08 СЗ 3 20 км н/о +29.7 -16.6 4 +25 +25 комфорт 1020.1 1017.0 +33.0

 

Местоположение метеостанции Анкаты (Западно-Казахстанская область, Казахстан): широта 50.83 долгота 52.00 высота над уровнем моря 25 м.

В архиве по умолчанию представлена погода в Анкаты за последнюю неделю. Архивные данные за месяц целиком и за предыдущие месяцы, начиная с января 2011 года, Вы можете получить, выбрав интересующий диапазон дат из раскрывающегося списка и нажав кнопку "Ввод!".

Внимание! Время в таблицах - всемирное. Для получения местного времени необходимо прибавить поправку, которая в Анкаты равна 5 ч.

Смотрите также архив погоды в соседних городах и на ближайших метеорологических станциях:

Погода в Уральске (Западно-Казахстанская область, Казахстан) (69 км)
Погода в Джамбейты (Западно-Казахстанская область, Казахстан) (76 км)
Погода в Аксае (Западно-Казахстанская область, Казахстан) (80 км)
Погода в Январцево (Западно-Казахстанская область, Казахстан) (87 км)
Погода в Чапаево (Западно-Казахстанская область, Казахстан) (91 км)
Погода в Первомайском (Оренбургская область, Россия) (121 км)
Погода в Каменке (Западно-Казахстанская область, Казахстан) (122 км)
Погода в Илеке (Оренбургская область, Россия) (123 км)
Погода в Чингирлау (Западно-Казахстанская область, Казахстан) (150 км)
Погода в Перелюбе (Саратовская область, Россия) (164 км)

Пояснения к столбцам:

Ветер - указаны скорость ветра в м/с - средняя за 10 мин, порывы в срок и между сроками (в фигурных скобках) и направление, откуда дует ветер: С - северный, СВ - северо-восточный, В - восточный, ЮВ - юго-восточный, Ю - южный, ЮЗ - юго-западный, З - западный, СЗ - северо-западный.
Видимость - горизонтальная дальность видимости в метрах или километрах. При видимости от 1 до 10 км при отсутствии осадков обычно наблюдается дымка, при ухудшении видимости до 1 км и менее - туман. В сухую погоду видимость может ухудшаться дымом, пылью или мглою.
Явления - указаны атмосферные явления, наблюдавшиеся в срок или в последний час перед сроком; фигурными скобками обозначены явления, наблюдавшиеся между сроками (за 1-3 часа до срока); квадратными скобками обозначены град или гололедные отложения с указанием их диаметра в мм.
Облачность - указаны через наклонную черту общая и нижняя облачность в баллах и высота нижней границы облаков в метрах; квадратными скобками обозначены формы облаков: Ci - перистые, Cs - перисто-слоистые, Cc - перисто-кучевые, Ac - высококучевые, As - высокослоистые, Sc - слоисто-кучевые, Ns - слоисто-дождевые, Cu - кучевые, Cb - кучево-дождевые. Подробнее классификацию облаков см. в Атласе облаков (PDF).
T - Температура воздуха - температура, измеренная на высоте 2 м над землей.
Td - Температура точки росы - температура, при понижении до которой содержащийся в воздухе водяной пар достигнет насыщения.
f - Относительная влажность воздуха - влажноcть воздуха, измеренная на высоте 2 м над землей.
Te - Эффективная температура - температура, которую ощущает одетый по сезону человек в тени. Характеристика душности погоды. При расчете учитывается влияние влажности воздуха и скорости ветра на теплоощущения человека.
Tes - Эффективная температура на солнце - температура, которую ощущает человек, с поправкой на солнечный нагрев. Характеристика знойности погоды. Зависит от высоты солнца над горизонтом, облачности и скорости ветра. Ночью, в пасмурную погоду, а также при ветре 12 м/с и более поправка равна нулю.
P - Атмосферное давление - приведенное к уровню моря атмосферное давление.
Po - Атмосферное давление - измеренное на уровне метеостанции атмосферное давление.
Tmin - Минимальная температура - минимум температуры воздуха на высоте 2 м над землей.
Tmax - Максимальная температура - максимум температуры воздуха на высоте 2 м над землей.
R - Количество осадков - Количество выпавших осадков за период времени, мм. При наведении курсора мыши на число - период времени, за который выпало указанное количество осадков.
R24 - Количество осадков - Количество выпавших осадков за 24 часа, мм.
S - Снежный покров - Высота снежного покрова, см. При наведении курсора мыши на число - состояние снежного покрова и степень покрытия местности в баллах.